Regional Weather Roundup
Issued by NWS Sioux Falls, SD

Home | Current Version | Previous Version | Graphics & Text | Print | Product List | Glossary Off
Versions: 1 2 3 4 5 6 7 8 9 10 11 12 13 14 15 16 17 18 19 20 21 22 23 24 25 26 27 28 29 30 31 32 33 34 35 36 37 38 39 40 41 42 43 44 45 46 47 48 49 50

000
ASUS43 KFSD 241110
RWRFSD

WEATHER ROUNDUP FOR SE SOUTH DAKOTA/SW MINNESOTA/NW IOWA
NATIONAL WEATHER SERVICE SIOUX FALLS SD
600 AM CDT MON APR 24 2017

NOTE: "FAIR" INDICATES FEW OR NO CLOUDS BELOW 12,000 FEET WITH NO
SIGNIFICANT WEATHER AND OR OBSTRUCTIONS TO VISIBILITY.


SDZ038>040-050-052>070-241200-
SOUTHEAST SOUTH DAKOTA

CITY           SKY/WX    TMP DP  RH WIND       PRES   REMARKS
BROOKINGS      CLOUDY    52  34  50 S15G22    29.65F
CHAMBERLAIN    MOCLDY    56  39  53 SE13      29.53F
HURON          CLOUDY    52  37  56 S14G24    29.56F
MADISON        FAIR      50  36  57 S15G22    29.64F
MITCHELL       CLOUDY    53  38  56 S13       29.59F
SIOUX FALLS    CLOUDY    54  36  50 S16G29    29.66F
WINNER         FAIR      56  37  49 S17G24    29.52F
YANKTON        CLOUDY    55  34  44 S12       29.65F
$$

MNZ071-072-080-081-089-090-097-098-241200-
SOUTHWEST MINNESOTA

CITY           SKY/WX    TMP DP  RH WIND       PRES   REMARKS
FAIRMONT       CLOUDY    48  35  60 S13       29.80F
JACKSON        CLOUDY    50  32  50 S13G20    29.78S
LUVERNE        CLOUDY    50  34  53 S10G16    29.72F
MARSHALL       CLOUDY    54  34  46 S23G29    29.67F
MONTEVIDEO     CLOUDY    52  36  54 S8        29.68F
PIPESTONE      CLOUDY    48  32  53 S10       29.69F
REDWOOD FALLS  MOCLDY    51  34  52 S13       29.72F
TRACY          MOCLDY    55  36  48 S16       29.71F
WINDOM         CLOUDY    54  34  47 S13       29.75F
WORTHINGTON    MOCLDY    51  35  54 S15       29.74F
$$

IAZ001>003-012>014-020>022-031-032-NEZ013-014-SDZ071-241200-
NORTHWEST IOWA

CITY           SKY/WX    TMP DP  RH WIND       PRES   REMARKS
CHEROKEE       CLOUDY    50  36  57 S15       29.77S
DENISON        CLOUDY    50  36  57 S9G15     29.81S
ESTHERVILLE    CLOUDY    47  35  63 S13       29.79S
LE MARS        PTCLDY    54  36  50 S17G24    29.74F
ORANGE CITY    CLOUDY    48  37  66 S9        29.74S
SHELDON        MOCLDY    50  36  57 S14       29.73S
SIOUX CITY     PTCLDY    51  37  58 SE14      29.74F
SPENCER        CLOUDY    48  35  60 MISG      29.77F
STORM LAKE     CLOUDY    48  36  61 S16       29.78S
$$

ABBREVIATIONS USED IN REMARKS
   TC - TEMPERATURE IN CELSIUS
  WCI - WIND CHILL INDEX
   HX - HEAT INDEX
  VSB - VISIBILITY




USA.gov is the U.S. government's official web portal to all federal, state and local government web resources and services.